Showing default

OT-FOREST-3 BJOERNTBW, 62682

Orbit data source: Space-Track

OT-FOREST-3 BJOERNTBW, 62682 is a payload satellite owned by OroraTech (DE) in SSO that was launched on Tue, 14 Jan 2025 UTC via an FALCON 9 launch vehicle from the Air Force Western Test Range (AFWTR). Payload-class satellites include a variety of spacecraft equipped with specific instruments for various scientific and technological missions. These include communications satellites like Starlink; space stations such as the ISS; scientific satellites like the Hubble; Earth observation satellites from companies like Planet Labs, Umbra, and HawkEye 360; GPS; miniature CubeSats for education and research; and military/defense satellites.

Loading next visibility...
Identifier
62682, 2025-009CB
Orbit
SSO
Country
Flag of DEDE / GER
Related business
Manufacturer
ORORA?
Mission
Operational Commercial Imaging
Bus & Motor
CUBESAT 8U, Unknown motor
Mass
~15 kg wet, ~15 kg dry
Launch date (UTC)
2025-01-14 (1 year ago)
Launch vehicle
FALCON 9
Launch site
Air Force Western Test Range (AFWTR)
Object type
Payload
Rocket body
Debris
Shape & HBR
Box, 0.2 m
Radar Cross Section
0.100 m², Small (<0.1 m²)

Expand to show TLE details & history
Last TLE update: 6 hours ago

TLE from 6 hours ago
0 OT-FOREST-3 BJOERNTBW
1 62682U 25009CB  26132.19735682  .00003494  00000-0  14566-3 0  9990
2 62682  97.3906 212.1442 0006616 108.5083 251.6874 15.24339248130952
Epoch: 2026-05-12T04:44Z
TLE epoch observation values (Epoch: 2026-05-12T04:44:11.629Z)
Latitude
-0°
Longitude
-88.87944°
Altitude
497.298 km
Speed
7.615 km/s
True Right ascension
14h 08m 34s
True Declination
0° 00' 00"
Sunlit
Object was in full shadow at epoch
Visualization orbit readout
Latitude
Unknown
Longitude
Unknown
Altitude
Unknown
Speed
Unknown
Apparent Right ascension
Unknown
Apparent Declination
Unknown
Sunlit
N/A
Visualization observer readout
Local Sidereal Time
18:56:55
Azimuth
Unknown
Elevation
Unknown
Doppler factor
Unknown
Orbital elements
Apogee altitude
494.273 km
Perigee altitude
485.186 km
Semi-major axis
6,867.867 km
Eccentricity
0.00066
Inclination
97.3906°
RAAN
212.1442°
Arg. of periapsis
108.5083°
True anomaly
251.61544°
Mean anomaly
251.6874°
Eccentric anomaly
251.65142°
Mean motion
3.81338 °/min
Orbital period
94.4 mins
BSTAR
0.00014566
Loading maneuver chart data...
Computing Atmospheric mass density...
Loading historical data...
Loading historical data...
Loading historical data...
Loading historical data...
Loading historical data...
Loading historical data...
Loading historical data...

Documentation

Showing up to 5 results
|